This is the latest recevied weather packets stored in our database for station/object K1ABC. If no packets are shown the sender has not sent any weather packets the latest 10 day(s).
| Time | Temp. | Humidity | Pressure | Rain* | Wind** | Luminosity | Snow |
|---|---|---|---|---|---|---|---|
| 1777478972 | 12.22° C | 74% | 1016.1 hPa | 0 mm | - | - | - |
| 1777475268 | 10° C | 83% | 1017.4 hPa | 0 mm | - | - | - |
| 1777472897 | 8.33° C | 89% | 1018.4 hPa | 0 mm | - | - | - |
| 1777472518 | 8.33° C | 89% | 1018.3 hPa | 0 mm | - | - | - |
| 1777472268 | 8.33° C | 90% | 1018.3 hPa | 0 mm | - | - | - |
| 1777471421 | 8.33° C | 90% | 1018.4 hPa | 0 mm | - | - | - |
| 1777470861 | 8.33° C | 90% | 1018.4 hPa | 0 mm | - | - | - |
| 1777470735 | 8.33° C | 90% | 1018.4 hPa | 0 mm | - | - | - |
| 1777470609 | 8.33° C | 90% | 1018.4 hPa | 0 mm | - | - | - |
| 1777469790 | 8.33° C | 91% | 1018.4 hPa | 0 mm | - | - | - |
| 1777467197 | 8.33° C | 91% | 1018.7 hPa | 0 mm | - | - | - |
| 1777465493 | 7.78° C | 91% | 1018.8 hPa | 0 mm | - | - | - |
| 1777464663 | 7.78° C | 91% | 1018.8 hPa | 0 mm | - | - | - |
| 1777464286 | 7.78° C | 91% | 1018.8 hPa | 0 mm | - | - | - |
| 1777463785 | 7.78° C | 91% | 1018.8 hPa | 0 mm | - | - | - |
| 1777462719 | 7.78° C | 90% | 1018.5 hPa | 0 mm | - | - | - |
| 1777462160 | 7.78° C | 90% | 1018.4 hPa | 0 mm | - | - | - |
| 1777461259 | 7.22° C | 90% | 1018.4 hPa | 0 mm | - | - | - |
| 1777460079 | 7.22° C | 89% | 1018.5 hPa | 0 mm | - | - | - |
| 1777458798 | 7.22° C | 88% | 1018.1 hPa | 0 mm | - | - | - |
| 1777458549 | 7.22° C | 87% | 1018 hPa | 0 mm | - | - | - |
| 1777458051 | 7.22° C | 87% | 1017.8 hPa | 0 mm | - | - | - |
| 1777457807 | 7.22° C | 87% | 1017.7 hPa | 0 mm | - | - | - |
| 1777457561 | 7.22° C | 87% | 1017.5 hPa | 0 mm | - | - | - |
| 1777453852 | 7.22° C | 85% | 1017.6 hPa | 0 mm | - | - | - |
* Rain latest hour (hover to see other rain measurements)
** Current wind speed in m/s (hover to see current wind gust speed)